User: anonymous   Login
Location: Unspecified
(0.0000°N, 0.0000°E)
Time: 16:36:42
(UTC+00:00)
Language:

AO-40 - Orbit

View from above orbital plane
View from above orbital plane
View from above satellite
View from above satellite

Ground track
Ground track

The orbit data is extracted from the following two-line orbital elements,

1 26609U 00072B   17197.29024679 -.00000114 +00000-0 +00000-0 0  9993
2 26609 006.4954 214.4760 7927221 138.6913 321.3764 01.25586166076580
Epoch (UTC): 16 July 2017 06:57:57
Eccentricity: 0.7927221
inclination: 6.4954°
perigee height: 1144 km
apogee height: 58677 km
right ascension of ascending node: 214.4760°
argument of perigee: 138.6913°
revolutions per day: 1.25586166
mean anomaly at epoch: 321.3764°
orbit number at epoch: 7658

The dashed part of the orbit path shows where the satellite is in the earth's shadow,  

DLR